BEL5FJ EBBR-LIRQ

Flight info

Callsign BEL5FJ
Flight time N/A
Altitude 37000
Route EBBR/19 ROUSY DCT GTQ DCT BEGAR DCT TRA DCT SUXAN DCT GOXIN DCT OGAPU Q58 BIKTU
Aircraft A20N/M-DE3FGHIJ1LORVWY/HB1G1

Departure

Time N/A
Airport Brussels Airport (EBBR)

Arrival

Time 2026-04-25 19:13
Airport Florence Airport, Peretola (LIRQ)
Time Latitude Longitude Altitude Speed Heading
2026-04-25 18:26 47.71585 8.33436 37127 ft 453 kts 110°
2026-04-25 18:26 47.68919 8.41925 37117 ft 454 kts 117°
2026-04-25 18:27 47.65561 8.49847 37112 ft 455 kts 125°
2026-04-25 18:27 47.61688 8.57203 37111 ft 455 kts 128°
2026-04-25 18:28 47.57733 8.64549 37110 ft 455 kts 127°
2026-04-25 18:28 47.53791 8.71906 37110 ft 455 kts 128°
2026-04-25 18:29 47.47887 8.82896 37112 ft 455 kts 128°
2026-04-25 18:30 47.40018 8.97455 37121 ft 455 kts 128°
2026-04-25 18:30 47.36065 9.04738 37140 ft 455 kts 128°
2026-04-25 18:31 47.32087 9.12047 37158 ft 455 kts 128°
2026-04-25 18:31 47.28123 9.19311 37163 ft 455 kts 128°
2026-04-25 18:32 47.24149 9.26575 37172 ft 455 kts 128°
2026-04-25 18:32 47.20174 9.33818 37179 ft 455 kts 128°
2026-04-25 18:33 47.16209 9.41028 37175 ft 455 kts 128°
2026-04-25 18:33 47.12211 9.48278 37171 ft 455 kts 128°
2026-04-25 18:34 47.08237 9.55464 37163 ft 455 kts 128°
2026-04-25 18:34 47.04244 9.62665 37181 ft 455 kts 128°
2026-04-25 18:35 47.00241 9.69882 37191 ft 455 kts 129°
2026-04-25 18:35 46.96278 9.77020 37198 ft 455 kts 129°
2026-04-25 18:36 46.92260 9.84220 37199 ft 455 kts 129°
2026-04-25 18:36 46.88253 9.91360 37192 ft 456 kts 129°
2026-04-25 18:37 46.84204 9.98517 37193 ft 456 kts 129°
2026-04-25 18:37 46.80175 10.05654 37176 ft 456 kts 129°
2026-04-25 18:38 46.76160 10.12767 37178 ft 457 kts 129°
2026-04-25 18:38 46.72126 10.19898 37176 ft 457 kts 129°
2026-04-25 18:39 46.68086 10.27029 37177 ft 457 kts 129°
2026-04-25 18:39 46.64024 10.34176 37178 ft 457 kts 129°
2026-04-25 18:40 46.59876 10.41107 37181 ft 456 kts 135°
2026-04-25 18:40 46.54945 10.46932 37169 ft 456 kts 148°
2026-04-25 18:41 46.49376 10.51189 37168 ft 454 kts 160°
2026-04-25 18:41 46.43428 10.54196 37177 ft 453 kts 163°
2026-04-25 18:42 46.39405 10.56131 37177 ft 454 kts 163°
2026-04-25 18:42 46.31437 10.59998 37165 ft 454 kts 163°
2026-04-25 18:43 46.25451 10.62914 37154 ft 454 kts 163°
2026-04-25 18:43 46.19574 10.65783 37146 ft 455 kts 163°
2026-04-25 18:44 46.13575 10.68735 37143 ft 454 kts 163°
2026-04-25 18:44 46.07631 10.71639 37147 ft 454 kts 163°
2026-04-25 18:45 46.01608 10.74563 36803 ft 454 kts 164°
2026-04-25 18:45 45.98619 10.76012 36991 ft 454 kts 164°
2026-04-25 18:45 45.95617 10.77461 37068 ft 456 kts 164°
2026-04-25 18:46 45.92633 10.78904 37223 ft 456 kts 164°
2026-04-25 18:46 45.89634 10.80348 37131 ft 454 kts 164°
2026-04-25 18:46 45.83623 10.83230 37066 ft 453 kts 164°
2026-04-25 18:47 45.77598 10.86115 37037 ft 453 kts 164°
2026-04-25 18:47 45.71640 10.88968 37027 ft 453 kts 164°
2026-04-25 18:48 45.65645 10.91831 37018 ft 453 kts 164°
2026-04-25 18:48 45.59692 10.94671 37021 ft 452 kts 164°
2026-04-25 18:49 45.53722 10.97513 37018 ft 451 kts 164°
2026-04-25 18:49 45.47764 11.00342 37008 ft 450 kts 164°
2026-04-25 18:50 45.41826 11.03157 37008 ft 450 kts 164°
2026-04-25 18:50 45.38845 11.04566 36732 ft 451 kts 164°
2026-04-25 18:50 45.35874 11.05970 36437 ft 448 kts 164°
2026-04-25 18:51 45.32924 11.07363 36149 ft 445 kts 165°
2026-04-25 18:51 45.31949 11.07824 36048 ft 444 kts 165°
2026-04-25 18:51 45.27065 11.10126 35383 ft 442 kts 165°
2026-04-25 18:51 45.24130 11.11504 34828 ft 444 kts 164°
2026-04-25 18:52 45.21224 11.12868 34223 ft 444 kts 164°
2026-04-25 18:52 45.18303 11.14238 33631 ft 445 kts 164°
2026-04-25 18:52 45.15342 11.15629 33033 ft 445 kts 164°
2026-04-25 18:52 45.12437 11.16989 32425 ft 445 kts 164°
2026-04-25 18:53 45.09484 11.18371 31780 ft 446 kts 165°
2026-04-25 18:53 45.06522 11.19758 31162 ft 447 kts 165°
2026-04-25 18:53 45.03574 11.21135 30530 ft 447 kts 165°
2026-04-25 18:53 45.00606 11.22517 29872 ft 449 kts 165°
2026-04-25 18:54 44.94716 11.25260 28830 ft 445 kts 165°
2026-04-25 18:54 44.91817 11.26609 28412 ft 440 kts 165°
2026-04-25 18:54 44.88891 11.27968 27989 ft 436 kts 165°
2026-04-25 18:55 44.86009 11.29299 27560 ft 431 kts 165°
2026-04-25 18:55 44.83183 11.30604 27122 ft 428 kts 165°
2026-04-25 18:55 44.80368 11.31905 26706 ft 424 kts 165°
2026-04-25 18:55 44.77606 11.33180 26303 ft 419 kts 166°
2026-04-25 18:56 44.74764 11.34018 25794 ft 411 kts 179°
2026-04-25 18:56 44.71915 11.34163 25245 ft 409 kts 183°
2026-04-25 18:56 44.69085 11.34179 24651 ft 409 kts 183°
2026-04-25 18:56 44.66246 11.34218 24034 ft 409 kts 182°
2026-04-25 18:57 44.63399 11.34301 23504 ft 406 kts 182°
2026-04-25 18:57 44.60554 11.34417 23037 ft 403 kts 181°
2026-04-25 18:57 44.57796 11.34551 22593 ft 399 kts 181°
2026-04-25 18:57 44.56865 11.34599 22441 ft 397 kts 181°
2026-04-25 18:58 44.52293 11.34848 21700 ft 391 kts 181°
2026-04-25 18:58 44.46894 11.35154 20812 ft 385 kts 181°
2026-04-25 18:58 44.44239 11.35306 20363 ft 382 kts 181°
2026-04-25 18:59 44.38981 11.35609 19466 ft 376 kts 180°
2026-04-25 18:59 44.33798 11.35908 18603 ft 370 kts 180°
2026-04-25 19:00 44.28681 11.36204 17732 ft 365 kts 180°
2026-04-25 19:00 44.26167 11.36351 17311 ft 362 kts 180°
2026-04-25 19:01 44.21134 11.36641 16427 ft 357 kts 180°
2026-04-25 19:01 44.18659 11.36785 16005 ft 355 kts 180°
2026-04-25 19:01 44.16214 11.36925 15572 ft 352 kts 179°
2026-04-25 19:01 44.13772 11.37065 15096 ft 352 kts 179°
2026-04-25 19:02 44.08870 11.37345 14046 ft 352 kts 179°
2026-04-25 19:02 44.06449 11.37485 13608 ft 349 kts 179°
2026-04-25 19:02 44.04021 11.37628 13253 ft 344 kts 178°
2026-04-25 19:03 44.00889 11.37811 12815 ft 340 kts 179°
2026-04-25 19:03 43.96955 11.38040 12232 ft 337 kts 178°
2026-04-25 19:03 43.94593 11.38176 11828 ft 337 kts 178°
2026-04-25 19:04 43.89977 11.38444 11001 ft 331 kts 178°
2026-04-25 19:04 43.87722 11.38574 10633 ft 327 kts 178°
2026-04-25 19:05 43.83245 11.38712 9875 ft 318 kts 189°
2026-04-25 19:05 43.79364 11.36171 9120 ft 306 kts 213°
2026-04-25 19:05 43.77582 11.34600 8751 ft 303 kts 213°
2026-04-25 19:06 43.75835 11.32961 8373 ft 299 kts 220°
2026-04-25 19:06 43.72990 11.28911 7647 ft 292 kts 230°
2026-04-25 19:06 43.71649 11.26794 7278 ft 289 kts 230°
2026-04-25 19:07 43.69036 11.22644 6565 ft 283 kts 230°
2026-04-25 19:07 43.67770 11.20635 6247 ft 279 kts 230°
2026-04-25 19:08 43.65228 11.16593 5503 ft 275 kts 232°
2026-04-25 19:08 43.64333 11.14312 5120 ft 271 kts 257°
2026-04-25 19:09 43.66180 11.07800 3905 ft 246 kts 326°
2026-04-25 19:09 43.66676 11.07408 3766 ft 245 kts 334°
2026-04-25 19:09 43.70822 11.07607 2610 ft 219 kts 22°
2026-04-25 19:10 43.72182 11.08428 2184 ft 209 kts 24°
2026-04-25 19:10 43.73436 11.09348 2077 ft 194 kts 34°
2026-04-25 19:10 43.74423 11.10470 1886 ft 177 kts 44°
2026-04-25 19:10 43.75243 11.11601 1683 ft 158 kts 47°
2026-04-25 19:11 43.75956 11.12685 1458 ft 144 kts 49°
2026-04-25 19:11 43.76609 11.13711 1280 ft 141 kts 49°
2026-04-25 19:11 43.77262 11.14726 1109 ft 141 kts 48°
2026-04-25 19:11 43.77919 11.15739 928 ft 142 kts 47°
2026-04-25 19:12 43.78578 11.16756 741 ft 142 kts 47°
2026-04-25 19:12 43.79241 11.17780 549 ft 142 kts 47°
2026-04-25 19:12 43.79901 11.18797 359 ft 142 kts 47°
2026-04-25 19:12 43.80555 11.19812 178 ft 142 kts 47°
2026-04-25 19:13 43.81140 11.20714 143 ft 90 kts 47°
2026-04-25 19:13 43.81371 11.21072 147 ft 24 kts 49°
2026-04-25 19:13 43.81442 11.21184 149 ft 11 kts 49°
2026-04-25 19:13 43.81476 11.21275 150 ft 5 kts 78°
2026-04-25 19:14 43.81494 11.21277 150 ft 6 kts 277°
2026-04-25 19:14 43.81487 11.21255 150 ft 8 kts 235°
2026-04-25 19:14 43.81372 11.21076 147 ft 21 kts 228°
2026-04-25 19:14 43.81269 11.20914 146 ft 22 kts 226°
2026-04-25 19:15 43.81165 11.20756 144 ft 22 kts 228°
2026-04-25 19:15 43.81064 11.20597 142 ft 22 kts 227°
2026-04-25 19:15 43.80958 11.20435 140 ft 22 kts 229°
2026-04-25 19:15 43.80858 11.20273 138 ft 22 kts 229°
2026-04-25 19:16 43.80754 11.20118 137 ft 22 kts 228°
2026-04-25 19:16 43.80657 11.20026 136 ft 14 kts 194°
2026-04-25 19:16 43.80560 11.19991 136 ft 14 kts 192°
2026-04-25 19:16 43.80457 11.19957 136 ft 15 kts 194°
2026-04-25 19:17 43.80405 11.19919 136 ft 5 kts 266°
2026-04-25 19:17 43.80433 11.19868 135 ft 10 kts 317°
2026-04-25 19:17 43.80510 11.19801 135 ft 15 kts 338°
2026-04-25 19:17 43.80602 11.19719 135 ft 16 kts 319°
2026-04-25 19:18 43.80683 11.19619 135 ft 11 kts 319°
2026-04-25 19:18 43.80734 11.19614 135 ft 8 kts 54°
2026-04-25 19:18 43.80773 11.19681 135 ft 7 kts 48°
2026-04-25 19:18 43.80798 11.19690 135 ft 4 kts 331°
2026-04-25 19:19 43.80813 11.19663 135 ft 4 kts 275°
2026-04-25 19:19 43.80812 11.19654 135 ft 0 kts 266°